Time,TemperatureF,DewpointF,PressureIn,WindDirection,WindDirectionDegrees,WindSpeedMPH,WindSpeedGustMPH,Humidity,HourlyPrecipIn,Conditions,Clouds,dailyrainin,SoftwareType,DateUTC
2013-04-02 00:00:00,36.9,16.0,29.88,WSW,252,1.0,7.0,42,0.00,,,0.04,meteohub,2013-04-02 04:00:00,
2013-04-02 00:05:00,36.7,16.3,29.88,SW,226,1.0,4.0,43,0.00,,,0.00,meteohub,2013-04-02 04:05:00,
2013-04-02 00:10:00,36.5,16.7,29.88,West,268,1.0,4.0,44,0.00,,,0.00,meteohub,2013-04-02 04:10:00,
2013-04-02 00:15:00,36.3,16.5,29.88,WSW,238,0.0,5.0,44,0.00,,,0.00,meteohub,2013-04-02 04:15:00,
2013-04-02 00:20:00,36.3,16.5,29.89,West,264,0.0,5.0,44,0.00,,,0.00,meteohub,2013-04-02 04:20:00,
2013-04-02 00:25:00,36.1,16.3,29.89,WSW,250,2.0,5.0,44,0.00,,,0.00,meteohub,2013-04-02 04:25:00,
2013-04-02 00:30:00,36.1,16.3,29.89,SW,224,1.0,4.0,44,0.00,,,0.00,meteohub,2013-04-02 04:30:00,
2013-04-02 00:35:00,36.1,16.9,29.89,WSW,242,0.0,4.0,45,0.00,,,0.00,meteohub,2013-04-02 04:35:00,
2013-04-02 00:40:00,36.0,17.2,29.89,WNW,293,1.0,4.0,46,0.00,,,0.00,meteohub,2013-04-02 04:40:00,
2013-04-02 00:45:00,35.8,16.5,29.90,WSW,250,0.0,5.0,45,0.00,,,0.00,meteohub,2013-04-02 04:45:00,
2013-04-02 00:50:00,35.8,16.5,29.90,SW,219,1.0,5.0,45,0.00,,,0.00,meteohub,2013-04-02 04:50:00,
2013-04-02 00:55:00,35.8,17.1,29.90,WSW,242,1.0,5.0,46,0.00,,,0.00,meteohub,2013-04-02 04:55:00,
2013-04-02 01:00:00,35.6,16.9,29.90,NNW,346,0.0,5.0,46,0.00,,,0.00,meteohub,2013-04-02 05:00:00,
2013-04-02 01:05:00,35.4,16.7,29.90,WSW,239,2.0,5.0,46,0.00,,,0.00,meteohub,2013-04-02 05:05:00,
2013-04-02 01:10:00,35.4,16.7,29.90,West,277,2.0,4.0,46,0.00,,,0.00,meteohub,2013-04-02 05:10:00,
2013-04-02 01:16:00,35.2,17.1,29.91,NE,34,0.0,4.0,47,0.00,,,0.00,meteohub,2013-04-02 05:16:00,
2013-04-02 01:20:00,35.1,16.9,29.91,WSW,238,1.0,4.0,47,0.00,,,0.00,meteohub,2013-04-02 05:20:00,
2013-04-02 01:25:00,35.1,17.4,29.91,NE,35,1.0,4.0,48,0.00,,,0.00,meteohub,2013-04-02 05:25:00,
2013-04-02 01:30:00,34.9,17.6,29.91,West,262,0.0,4.0,49,0.00,,,0.00,meteohub,2013-04-02 05:30:00,
2013-04-02 01:36:00,34.9,17.6,29.91,SW,225,0.0,4.0,49,0.00,,,0.00,meteohub,2013-04-02 05:36:00,
2013-04-02 01:41:00,34.7,17.4,29.91,ESE,112,0.0,4.0,49,0.00,,,0.00,meteohub,2013-04-02 05:41:00,
2013-04-02 01:46:00,34.7,18.0,29.91,WSW,238,2.0,4.0,50,0.00,,,0.00,meteohub,2013-04-02 05:46:00,
2013-04-02 01:51:00,34.5,17.8,29.91,WSW,239,0.0,3.0,50,0.00,,,0.00,meteohub,2013-04-02 05:51:00,
2013-04-02 01:56:00,34.3,17.6,29.91,SW,236,0.0,3.0,50,0.00,,,0.00,meteohub,2013-04-02 05:56:00,
2013-04-02 02:01:00,34.0,18.1,29.91,West,271,1.0,3.0,52,0.00,,,0.00,meteohub,2013-04-02 06:01:00,
2013-04-02 02:06:00,34.0,17.8,29.91,NE,46,0.0,2.0,51,0.00,,,0.00,meteohub,2013-04-02 06:06:00,
2013-04-02 02:11:00,33.6,17.8,29.91,West,264,1.0,2.0,52,0.00,,,0.00,meteohub,2013-04-02 06:11:00,
2013-04-02 02:16:00,33.6,18.3,29.91,West,260,3.0,3.0,53,0.00,,,0.00,meteohub,2013-04-02 06:16:00,
2013-04-02 02:21:00,33.8,17.6,29.91,SSW,212,1.0,3.0,51,0.00,,,0.00,meteohub,2013-04-02 06:21:00,
2013-04-02 02:26:00,34.0,17.8,29.91,West,273,1.0,4.0,51,0.00,,,0.00,meteohub,2013-04-02 06:26:00,
2013-04-02 02:31:00,34.0,17.8,29.91,SW,232,0.0,4.0,51,0.00,,,0.00,meteohub,2013-04-02 06:31:00,
2013-04-02 02:36:00,33.8,18.0,29.91,WSW,255,0.0,5.0,52,0.00,,,0.00,meteohub,2013-04-02 06:36:00,
2013-04-02 02:41:00,33.4,17.8,29.91,WSW,255,0.0,5.0,52,0.00,,,0.00,meteohub,2013-04-02 06:41:00,
2013-04-02 02:46:00,33.3,18.0,29.91,WSW,239,1.0,3.0,53,0.00,,,0.00,meteohub,2013-04-02 06:46:00,
2013-04-02 02:52:00,33.1,18.3,29.91,SW,235,0.0,1.0,54,0.00,,,0.00,meteohub,2013-04-02 06:52:00,
2013-04-02 02:57:00,32.9,18.1,29.91,SW,235,0.0,1.0,54,0.00,,,0.00,meteohub,2013-04-02 06:57:00,
2013-04-02 03:02:00,32.7,18.3,29.91,SW,235,0.0,1.0,55,0.00,,,0.00,meteohub,2013-04-02 07:02:00,
2013-04-02 03:07:00,32.5,17.8,29.91,SW,226,0.0,0.0,54,0.00,,,0.00,meteohub,2013-04-02 07:07:00,
2013-04-02 03:12:00,32.5,18.1,29.91,SW,226,0.0,2.0,55,0.00,,,0.00,meteohub,2013-04-02 07:12:00,
2013-04-02 03:17:00,32.4,18.0,29.91,SW,226,0.0,2.0,55,0.00,,,0.00,meteohub,2013-04-02 07:17:00,
2013-04-02 03:22:00,32.4,18.0,29.91,WSW,238,0.0,2.0,55,0.00,,,0.00,meteohub,2013-04-02 07:22:00,
2013-04-02 03:27:00,32.4,18.5,29.91,North,356,0.0,1.0,56,0.00,,,0.00,meteohub,2013-04-02 07:27:00,
2013-04-02 03:32:00,32.4,18.0,29.91,WSW,248,0.0,1.0,55,0.00,,,0.00,meteohub,2013-04-02 07:32:00,
2013-04-02 03:37:00,32.4,18.5,29.91,WSW,246,0.0,2.0,56,0.00,,,0.00,meteohub,2013-04-02 07:37:00,
2013-04-02 03:43:00,32.2,17.8,29.91,WSW,246,0.0,2.0,55,0.00,,,0.00,meteohub,2013-04-02 07:43:00,
2013-04-02 03:48:00,32.2,18.3,29.90,SW,221,0.0,0.0,56,0.00,,,0.00,meteohub,2013-04-02 07:48:00,
2013-04-02 03:53:00,32.2,18.3,29.90,SW,221,0.0,1.0,56,0.00,,,0.00,meteohub,2013-04-02 07:53:00,
2013-04-02 03:58:00,31.8,18.0,29.91,SW,221,0.0,1.0,56,0.00,,,0.00,meteohub,2013-04-02 07:58:00,
2013-04-02 04:03:00,31.6,18.1,29.91,SW,221,0.0,1.0,57,0.00,,,0.00,meteohub,2013-04-02 08:03:00,
2013-04-02 04:08:00,31.5,18.3,29.91,SW,221,0.0,0.0,58,0.00,,,0.00,meteohub,2013-04-02 08:08:00,
2013-04-02 04:13:00,31.5,18.3,29.91,SW,221,0.0,1.0,58,0.00,,,0.00,meteohub,2013-04-02 08:13:00,
2013-04-02 04:18:00,31.3,18.1,29.91,SW,221,0.0,1.0,58,0.00,,,0.00,meteohub,2013-04-02 08:18:00,
2013-04-02 04:23:00,31.3,18.1,29.91,West,269,0.0,0.0,58,0.00,,,0.00,meteohub,2013-04-02 08:23:00,
2013-04-02 04:28:00,31.3,18.1,29.91,West,270,0.0,1.0,58,0.00,,,0.00,meteohub,2013-04-02 08:28:00,
2013-04-02 04:33:00,31.3,18.1,29.91,West,267,0.0,1.0,58,0.00,,,0.00,meteohub,2013-04-02 08:33:00,
2013-04-02 04:38:00,31.1,18.1,29.91,West,263,0.0,1.0,58,0.00,,,0.00,meteohub,2013-04-02 08:38:00,
2013-04-02 04:43:00,31.3,18.1,29.91,West,263,0.0,1.0,58,0.00,,,0.00,meteohub,2013-04-02 08:43:00,
2013-04-02 04:48:00,31.3,18.7,29.91,West,262,0.0,1.0,59,0.00,,,0.00,meteohub,2013-04-02 08:48:00,
2013-04-02 04:53:00,30.9,18.7,29.91,West,263,0.0,1.0,60,0.00,,,0.00,meteohub,2013-04-02 08:53:00,
2013-04-02 04:58:00,30.9,18.7,29.92,West,262,0.0,0.0,60,0.00,,,0.00,meteohub,2013-04-02 08:58:00,
2013-04-02 05:03:00,30.9,18.7,29.92,SW,225,0.0,0.0,60,0.00,,,0.00,meteohub,2013-04-02 09:03:00,
2013-04-02 05:08:00,31.1,18.5,29.92,SW,231,3.0,3.0,59,0.00,,,0.00,meteohub,2013-04-02 09:08:00,
2013-04-02 05:13:00,31.5,18.3,29.92,WSW,250,0.0,1.0,58,0.00,,,0.00,meteohub,2013-04-02 09:13:00,
2013-04-02 05:18:00,31.6,18.5,29.92,WSW,250,0.0,3.0,58,0.00,,,0.00,meteohub,2013-04-02 09:18:00,
2013-04-02 05:23:00,31.5,18.9,29.92,WSW,250,0.0,3.0,59,0.00,,,0.00,meteohub,2013-04-02 09:23:00,
2013-04-02 05:28:00,31.5,18.3,29.92,WSW,253,0.0,2.0,58,0.00,,,0.00,meteohub,2013-04-02 09:28:00,
2013-04-02 05:33:00,31.5,18.3,29.92,West,260,0.0,0.0,58,0.00,,,0.00,meteohub,2013-04-02 09:33:00,
2013-04-02 05:38:00,31.3,18.7,29.92,West,281,0.0,0.0,59,0.00,,,0.00,meteohub,2013-04-02 09:38:00,
2013-04-02 05:43:00,31.5,18.9,29.93,WSW,240,0.0,0.0,59,0.00,,,0.00,meteohub,2013-04-02 09:43:00,
2013-04-02 05:48:00,31.5,18.9,29.92,West,260,0.0,0.0,59,0.00,,,0.00,meteohub,2013-04-02 09:48:00,
2013-04-02 05:53:00,31.5,18.9,29.93,West,267,0.0,2.0,59,0.00,,,0.00,meteohub,2013-04-02 09:53:00,
2013-04-02 05:58:00,31.5,19.2,29.93,West,267,0.0,2.0,60,0.00,,,0.00,meteohub,2013-04-02 09:58:00,
2013-04-02 06:03:00,31.3,19.0,29.93,West,262,0.0,2.0,60,0.00,,,0.00,meteohub,2013-04-02 10:03:00,
2013-04-02 06:08:00,31.3,19.4,29.94,SW,217,0.0,2.0,61,0.00,,,0.00,meteohub,2013-04-02 10:08:00,
2013-04-02 06:13:00,31.5,19.2,29.94,WSW,253,0.0,2.0,60,0.00,,,0.00,meteohub,2013-04-02 10:13:00,
2013-04-02 06:18:00,31.5,19.6,29.94,South,191,0.0,2.0,61,0.00,,,0.00,meteohub,2013-04-02 10:18:00,
2013-04-02 06:23:00,31.3,19.4,29.94,South,191,0.0,0.0,61,0.00,,,0.00,meteohub,2013-04-02 10:23:00,
2013-04-02 06:28:00,30.9,19.4,29.95,South,191,0.0,0.0,62,0.00,,,0.00,meteohub,2013-04-02 10:28:00,
2013-04-02 06:33:00,30.7,19.2,29.95,South,191,0.0,0.0,62,0.00,,,0.00,meteohub,2013-04-02 10:33:00,
2013-04-02 06:38:00,30.6,19.4,29.95,South,191,0.0,0.0,63,0.00,,,0.00,meteohub,2013-04-02 10:38:00,
2013-04-02 06:43:00,30.4,19.2,29.96,South,191,0.0,0.0,63,0.00,,,0.00,meteohub,2013-04-02 10:43:00,
2013-04-02 06:48:00,30.0,19.4,29.96,South,191,0.0,0.0,64,0.00,,,0.00,meteohub,2013-04-02 10:48:00,
2013-04-02 06:53:00,30.0,19.4,29.96,South,191,0.0,0.0,64,0.00,,,0.00,meteohub,2013-04-02 10:53:00,
2013-04-02 06:58:00,30.0,19.8,29.96,SSW,192,0.0,0.0,65,0.00,,,0.00,meteohub,2013-04-02 10:58:00,
2013-04-02 07:04:00,30.2,19.9,29.96,WSW,256,0.0,0.0,65,0.00,,,0.00,meteohub,2013-04-02 11:04:00,
2013-04-02 07:09:00,30.4,19.9,29.96,WSW,252,2.0,0.0,65,0.00,,,0.00,meteohub,2013-04-02 11:09:00,
2013-04-02 07:14:00,30.7,19.9,29.96,SW,235,0.0,0.0,64,0.00,,,0.00,meteohub,2013-04-02 11:14:00,
2013-04-02 07:19:00,30.9,19.8,29.97,West,259,0.0,2.0,63,0.00,,,0.00,meteohub,2013-04-02 11:19:00,
2013-04-02 07:24:00,31.3,19.8,29.97,West,260,0.0,2.0,62,0.00,,,0.00,meteohub,2013-04-02 11:24:00,
2013-04-02 07:29:00,31.6,19.8,29.97,WSW,255,0.0,2.0,61,0.00,,,0.00,meteohub,2013-04-02 11:29:00,
2013-04-02 07:34:00,32.0,19.8,29.97,WSW,258,0.0,3.0,60,0.00,,,0.00,meteohub,2013-04-02 11:34:00,
2013-04-02 07:39:00,32.4,19.6,29.97,WSW,238,0.0,3.0,59,0.00,,,0.00,meteohub,2013-04-02 11:39:00,
2013-04-02 07:44:00,32.5,19.0,29.97,West,269,0.0,3.0,57,0.00,,,0.00,meteohub,2013-04-02 11:44:00,
2013-04-02 07:49:00,32.9,19.4,29.97,West,273,1.0,8.0,57,0.00,,,0.00,meteohub,2013-04-02 11:49:00,
2013-04-02 07:54:00,33.1,19.0,29.97,South,176,0.0,8.0,56,0.00,,,0.00,meteohub,2013-04-02 11:54:00,
2013-04-02 07:59:00,33.3,19.8,29.97,SSW,204,1.0,6.0,57,0.00,,,0.00,meteohub,2013-04-02 11:59:00,
2013-04-02 08:04:00,33.6,19.2,29.98,West,262,3.0,4.0,55,0.00,,,0.00,meteohub,2013-04-02 12:04:00,
2013-04-02 08:09:00,33.8,19.4,29.98,West,276,0.0,4.0,55,0.00,,,0.00,meteohub,2013-04-02 12:09:00,
2013-04-02 08:14:00,34.0,18.7,29.98,WSW,257,1.0,5.0,53,0.00,,,0.00,meteohub,2013-04-02 12:14:00,
2013-04-02 08:19:00,34.2,18.9,29.98,WNW,297,0.0,7.0,53,0.00,,,0.00,meteohub,2013-04-02 12:19:00,
2013-04-02 08:24:00,34.3,18.1,29.98,SW,236,1.0,7.0,51,0.00,,,0.00,meteohub,2013-04-02 12:24:00,
2013-04-02 08:29:00,34.5,17.8,29.98,ENE,63,0.0,7.0,50,0.00,,,0.00,meteohub,2013-04-02 12:29:00,
2013-04-02 08:34:00,34.9,18.1,29.98,West,259,2.0,4.0,50,0.00,,,0.00,meteohub,2013-04-02 12:34:00,
2013-04-02 08:39:00,35.1,17.4,29.99,WNW,301,1.0,5.0,48,0.00,,,0.00,meteohub,2013-04-02 12:39:00,
2013-04-02 08:44:00,35.4,17.6,29.99,NW,315,1.0,5.0,48,0.00,,,0.00,meteohub,2013-04-02 12:44:00,
2013-04-02 08:49:00,35.6,16.9,29.99,West,266,0.0,5.0,46,0.00,,,0.00,meteohub,2013-04-02 12:49:00,
2013-04-02 08:54:00,35.8,17.6,29.99,NW,321,1.0,5.0,47,0.00,,,0.00,meteohub,2013-04-02 12:54:00,
2013-04-02 08:59:00,36.3,18.0,29.99,WNW,283,0.0,4.0,47,0.00,,,0.00,meteohub,2013-04-02 12:59:00,
2013-04-02 09:04:00,36.5,16.7,29.99,WNW,298,1.0,4.0,44,0.00,,,0.00,meteohub,2013-04-02 13:04:00,
2013-04-02 09:09:00,36.7,16.9,29.99,WSW,248,2.0,4.0,44,0.00,,,0.00,meteohub,2013-04-02 13:09:00,
2013-04-02 09:14:00,36.5,16.7,29.99,SW,233,1.0,6.0,44,0.00,,,0.00,meteohub,2013-04-02 13:14:00,
2013-04-02 09:19:00,36.7,16.3,29.99,WSW,245,3.0,7.0,43,0.00,,,0.00,meteohub,2013-04-02 13:19:00,
2013-04-02 09:24:00,36.7,16.9,29.99,WSW,245,2.0,7.0,44,0.00,,,0.00,meteohub,2013-04-02 13:24:00,
2013-04-02 09:29:00,37.0,16.7,29.99,SW,236,2.0,7.0,43,0.00,,,0.00,meteohub,2013-04-02 13:29:00,
2013-04-02 09:34:00,37.0,17.6,29.99,West,278,3.0,6.0,45,0.00,,,0.00,meteohub,2013-04-02 13:34:00,
2013-04-02 09:39:00,37.0,17.6,29.98,NNW,331,1.0,8.0,45,0.00,,,0.00,meteohub,2013-04-02 13:39:00,
2013-04-02 09:44:00,37.4,18.0,29.98,WSW,257,3.0,8.0,45,0.00,,,0.00,meteohub,2013-04-02 13:44:00,
2013-04-02 09:49:00,37.6,18.1,29.98,WNW,297,0.0,8.0,45,0.00,,,0.00,meteohub,2013-04-02 13:49:00,
2013-04-02 09:54:00,37.8,17.8,29.98,West,273,1.0,9.0,44,0.00,,,0.00,meteohub,2013-04-02 13:54:00,
2013-04-02 09:59:00,37.9,18.5,29.98,WSW,258,3.0,9.0,45,0.00,,,0.00,meteohub,2013-04-02 13:59:00,
2013-04-02 10:04:00,37.8,17.2,29.98,SW,229,4.0,6.0,43,0.00,,,0.00,meteohub,2013-04-02 14:04:00,
2013-04-02 10:09:00,37.6,18.1,29.98,WNW,302,1.0,7.0,45,0.00,,,0.00,meteohub,2013-04-02 14:09:00,
2013-04-02 10:14:00,37.6,18.7,29.98,West,260,10.0,10.0,46,0.00,,,0.00,meteohub,2013-04-02 14:14:00,
2013-04-02 10:19:00,37.2,17.2,29.98,West,274,2.0,5.0,44,0.00,,,0.00,meteohub,2013-04-02 14:19:00,
2013-04-02 10:24:00,37.0,16.7,29.98,WNW,302,5.0,10.0,43,0.00,,,0.00,meteohub,2013-04-02 14:24:00,
2013-04-02 10:29:00,37.2,16.2,29.98,ENE,68,0.0,10.0,42,0.00,,,0.00,meteohub,2013-04-02 14:29:00,
2013-04-02 10:34:00,37.4,16.3,29.98,West,266,3.0,10.0,42,0.00,,,0.00,meteohub,2013-04-02 14:34:00,
2013-04-02 10:39:00,37.9,16.3,29.98,WSW,245,1.0,10.0,41,0.00,,,0.00,meteohub,2013-04-02 14:39:00,
2013-04-02 10:44:00,37.9,16.9,29.98,West,260,1.0,8.0,42,0.00,,,0.00,meteohub,2013-04-02 14:44:00,
2013-04-02 10:49:00,38.5,17.4,29.98,WSW,238,2.0,7.0,42,0.00,,,0.00,meteohub,2013-04-02 14:49:00,
2013-04-02 10:54:00,38.7,16.3,29.98,SSE,155,1.0,11.0,40,0.00,,,0.00,meteohub,2013-04-02 14:54:00,
2013-04-02 10:59:00,38.7,16.3,29.98,NW,309,1.0,11.0,40,0.00,,,0.00,meteohub,2013-04-02 14:59:00,
2013-04-02 11:04:00,39.0,15.6,29.98,WSW,255,5.0,11.0,38,0.00,,,0.00,meteohub,2013-04-02 15:04:00,
2013-04-02 11:09:00,39.4,14.7,29.97,East,84,0.0,8.0,36,0.00,,,0.00,meteohub,2013-04-02 15:09:00,
2013-04-02 11:14:00,39.7,14.9,29.98,WSW,239,6.0,8.0,36,0.00,,,0.00,meteohub,2013-04-02 15:14:00,
2013-04-02 11:19:00,39.7,14.9,29.98,WNW,287,3.0,8.0,36,0.00,,,0.00,meteohub,2013-04-02 15:19:00,
2013-04-02 11:24:00,40.1,16.0,29.98,SSW,196,2.0,10.0,37,0.00,,,0.00,meteohub,2013-04-02 15:24:00,
2013-04-02 11:29:00,40.5,16.2,29.98,WSW,255,2.0,10.0,37,0.00,,,0.00,meteohub,2013-04-02 15:29:00,
2013-04-02 11:35:00,40.3,16.2,29.97,NNW,345,2.0,10.0,37,0.00,,,0.00,meteohub,2013-04-02 15:35:00,
2013-04-02 11:40:00,40.5,14.9,29.97,SW,224,5.0,7.0,35,0.00,,,0.00,meteohub,2013-04-02 15:40:00,
2013-04-02 11:45:00,40.1,16.0,29.97,East,81,0.0,7.0,37,0.00,,,0.00,meteohub,2013-04-02 15:45:00,
2013-04-02 11:50:00,40.1,14.7,29.97,SW,233,4.0,12.0,35,0.00,,,0.00,meteohub,2013-04-02 15:50:00,
2013-04-02 11:55:00,40.5,15.6,29.97,NW,315,3.0,12.0,36,0.00,,,0.00,meteohub,2013-04-02 15:55:00,
2013-04-02 12:00:00,40.6,15.8,29.96,WSW,256,3.0,9.0,36,0.00,,,0.00,meteohub,2013-04-02 16:00:00,
2013-04-02 12:05:00,40.8,14.5,29.96,WNW,288,1.0,6.0,34,0.00,,,0.00,meteohub,2013-04-02 16:05:00,
2013-04-02 12:10:00,40.8,15.3,29.96,West,269,2.0,6.0,35,0.00,,,0.00,meteohub,2013-04-02 16:10:00,
2013-04-02 12:15:00,41.2,16.9,29.96,WSW,245,4.0,7.0,37,0.00,,,0.00,meteohub,2013-04-02 16:15:00,
2013-04-02 12:20:00,41.4,15.8,29.97,SW,231,4.0,7.0,35,0.00,,,0.00,meteohub,2013-04-02 16:20:00,
2013-04-02 12:25:00,41.5,16.5,29.96,West,262,3.0,8.0,36,0.00,,,0.00,meteohub,2013-04-02 16:25:00,
2013-04-02 12:30:00,41.7,17.4,29.96,West,266,4.0,8.0,37,0.00,,,0.00,meteohub,2013-04-02 16:30:00,
2013-04-02 12:36:00,42.1,15.8,29.96,West,272,9.0,9.0,34,0.00,,,0.00,meteohub,2013-04-02 16:36:00,
2013-04-02 12:41:00,41.5,16.5,29.96,WSW,248,5.0,9.0,36,0.00,,,0.00,meteohub,2013-04-02 16:41:00,
2013-04-02 12:46:00,41.9,16.9,29.96,WSW,238,4.0,9.0,36,0.00,,,0.00,meteohub,2013-04-02 16:46:00,
2013-04-02 12:52:00,42.4,16.7,29.96,West,267,3.0,9.0,35,0.00,,,0.00,meteohub,2013-04-02 16:52:00,
2013-04-02 12:57:00,42.4,16.0,29.96,NW,312,1.0,6.0,34,0.00,,,0.00,meteohub,2013-04-02 16:57:00,
2013-04-02 13:02:00,42.8,16.3,29.96,WNW,297,1.0,6.0,34,0.00,,,0.00,meteohub,2013-04-02 17:02:00,
2013-04-02 13:07:00,43.0,17.2,29.96,WSW,254,0.0,6.0,35,0.00,,,0.00,meteohub,2013-04-02 17:07:00,
2013-04-02 13:12:00,43.7,18.5,29.96,WSW,240,2.0,6.0,36,0.00,,,0.00,meteohub,2013-04-02 17:12:00,
2013-04-02 13:17:00,43.3,16.9,29.95,NW,319,6.0,6.0,34,0.00,,,0.00,meteohub,2013-04-02 17:17:00,
2013-04-02 13:22:00,43.3,16.9,29.95,WNW,289,2.0,5.0,34,0.00,,,0.00,meteohub,2013-04-02 17:22:00,
2013-04-02 13:27:00,43.3,17.6,29.95,WNW,283,0.0,7.0,35,0.00,,,0.00,meteohub,2013-04-02 17:27:00,
2013-04-02 13:32:00,43.2,16.7,29.95,ENE,65,3.0,11.0,34,0.00,,,0.00,meteohub,2013-04-02 17:32:00,
2013-04-02 13:37:00,43.5,16.3,29.95,North,11,2.0,11.0,33,0.00,,,0.00,meteohub,2013-04-02 17:37:00,
2013-04-02 13:42:00,43.5,16.3,29.95,West,274,2.0,11.0,33,0.00,,,0.00,meteohub,2013-04-02 17:42:00,
2013-04-02 13:47:00,43.9,18.0,29.94,WNW,285,4.0,8.0,35,0.00,,,0.00,meteohub,2013-04-02 17:47:00,
2013-04-02 13:53:00,43.9,18.0,29.95,WSW,256,1.0,7.0,35,0.00,,,0.00,meteohub,2013-04-02 17:53:00,
2013-04-02 13:57:00,44.4,19.0,29.94,WSW,256,2.0,7.0,36,0.00,,,0.00,meteohub,2013-04-02 17:57:00,
2013-04-02 14:03:00,44.8,18.1,29.94,SW,222,2.0,6.0,34,0.00,,,0.00,meteohub,2013-04-02 18:03:00,
2013-04-02 14:08:00,44.4,16.3,29.94,West,263,2.0,7.0,32,0.00,,,0.00,meteohub,2013-04-02 18:08:00,
2013-04-02 14:13:00,44.2,16.2,29.94,SSW,195,1.0,8.0,32,0.00,,,0.00,meteohub,2013-04-02 18:13:00,
2013-04-02 14:18:00,44.4,16.3,29.94,North,353,2.0,8.0,32,0.00,,,0.00,meteohub,2013-04-02 18:18:00,
2013-04-02 14:23:00,44.4,17.1,29.94,West,270,2.0,10.0,33,0.00,,,0.00,meteohub,2013-04-02 18:23:00,
2013-04-02 14:28:00,44.2,17.6,29.94,West,274,2.0,10.0,34,0.00,,,0.00,meteohub,2013-04-02 18:28:00,
2013-04-02 14:33:00,44.2,17.6,29.94,SSW,211,1.0,10.0,34,0.00,,,0.00,meteohub,2013-04-02 18:33:00,
2013-04-02 14:38:00,44.6,19.2,29.94,SW,217,2.0,10.0,36,0.00,,,0.00,meteohub,2013-04-02 18:38:00,
2013-04-02 14:43:00,44.2,16.9,29.94,West,276,6.0,10.0,33,0.00,,,0.00,meteohub,2013-04-02 18:43:00,
2013-04-02 14:48:00,43.3,14.7,29.94,NNW,335,3.0,10.0,31,0.00,,,0.00,meteohub,2013-04-02 18:48:00,
2013-04-02 14:53:00,43.2,16.7,29.94,WNW,294,1.0,8.0,34,0.00,,,0.00,meteohub,2013-04-02 18:53:00,
2013-04-02 14:58:00,43.5,16.3,29.94,SW,224,1.0,8.0,33,0.00,,,0.00,meteohub,2013-04-02 18:58:00,
2013-04-02 15:03:00,43.5,15.6,29.94,WSW,249,3.0,8.0,32,0.00,,,0.00,meteohub,2013-04-02 19:03:00,
2013-04-02 15:08:00,43.5,15.6,29.93,North,357,2.0,10.0,32,0.00,,,0.00,meteohub,2013-04-02 19:08:00,
2013-04-02 15:13:00,43.3,14.7,29.94,WNW,290,3.0,10.0,31,0.00,,,0.00,meteohub,2013-04-02 19:13:00,
2013-04-02 15:18:00,44.4,17.8,29.94,WSW,253,2.0,10.0,34,0.00,,,0.00,meteohub,2013-04-02 19:18:00,
2013-04-02 15:23:00,44.8,18.9,29.93,SW,235,2.0,9.0,35,0.00,,,0.00,meteohub,2013-04-02 19:23:00,
2013-04-02 15:29:00,44.4,15.6,29.93,West,263,0.0,8.0,31,0.00,,,0.00,meteohub,2013-04-02 19:29:00,
2013-04-02 15:34:00,44.8,17.4,29.93,West,262,2.0,7.0,33,0.00,,,0.00,meteohub,2013-04-02 19:34:00,
2013-04-02 15:39:00,45.0,18.3,29.93,West,269,2.0,7.0,34,0.00,,,0.00,meteohub,2013-04-02 19:39:00,
2013-04-02 15:44:00,44.4,16.3,29.93,NNW,328,0.0,7.0,32,0.00,,,0.00,meteohub,2013-04-02 19:44:00,
2013-04-02 15:49:00,44.2,16.9,29.93,WSW,240,4.0,7.0,33,0.00,,,0.00,meteohub,2013-04-02 19:49:00,
2013-04-02 15:54:00,45.0,16.9,29.93,WNW,300,2.0,7.0,32,0.00,,,0.00,meteohub,2013-04-02 19:54:00,
2013-04-02 15:59:00,45.0,16.9,29.93,WNW,284,1.0,7.0,32,0.00,,,0.00,meteohub,2013-04-02 19:59:00,
2013-04-02 16:04:00,44.8,16.0,29.93,SW,232,5.0,7.0,31,0.00,,,0.00,meteohub,2013-04-02 20:04:00,
2013-04-02 16:09:00,45.0,14.5,29.93,WSW,252,1.0,7.0,29,0.00,,,0.00,meteohub,2013-04-02 20:09:00,
2013-04-02 16:14:00,45.1,16.3,29.93,West,265,6.0,7.0,31,0.00,,,0.00,meteohub,2013-04-02 20:14:00,
2013-04-02 16:19:00,45.1,14.7,29.93,West,259,3.0,7.0,29,0.00,,,0.00,meteohub,2013-04-02 20:19:00,
2013-04-02 16:24:00,44.4,16.3,29.93,WSW,253,2.0,7.0,32,0.00,,,0.00,meteohub,2013-04-02 20:24:00,
2013-04-02 16:29:00,44.4,16.3,29.93,ESE,115,0.0,7.0,32,0.00,,,0.00,meteohub,2013-04-02 20:29:00,
2013-04-02 16:34:00,44.1,14.5,29.93,SW,215,1.0,7.0,30,0.00,,,0.00,meteohub,2013-04-02 20:34:00,
2013-04-02 16:39:00,43.5,14.9,29.93,WSW,253,1.0,6.0,31,0.00,,,0.00,meteohub,2013-04-02 20:39:00,
2013-04-02 16:44:00,43.3,14.0,29.93,SW,231,3.0,6.0,30,0.00,,,0.00,meteohub,2013-04-02 20:44:00,
2013-04-02 16:49:00,43.3,13.3,29.93,NNE,22,1.0,7.0,29,0.00,,,0.00,meteohub,2013-04-02 20:49:00,
2013-04-02 16:54:00,43.7,14.4,29.93,WNW,285,0.0,8.0,30,0.00,,,0.00,meteohub,2013-04-02 20:54:00,
2013-04-02 17:00:00,43.7,15.1,29.93,WNW,294,2.0,8.0,31,0.00,,,0.00,meteohub,2013-04-02 21:00:00,
2013-04-02 17:05:00,43.3,14.7,29.93,WSW,239,1.0,5.0,31,0.00,,,0.00,meteohub,2013-04-02 21:05:00,
2013-04-02 17:10:00,43.5,14.9,29.93,West,264,1.0,6.0,31,0.00,,,0.00,meteohub,2013-04-02 21:10:00,
2013-04-02 17:15:00,43.9,13.6,29.93,West,281,3.0,6.0,29,0.00,,,0.00,meteohub,2013-04-02 21:15:00,
2013-04-02 17:20:00,43.3,14.0,29.94,SW,233,3.0,8.0,30,0.00,,,0.00,meteohub,2013-04-02 21:20:00,
2013-04-02 17:25:00,43.2,13.8,29.94,West,260,5.0,13.0,30,0.00,,,0.00,meteohub,2013-04-02 21:25:00,
2013-04-02 17:30:00,43.2,14.5,29.94,NNW,329,0.0,13.0,31,0.00,,,0.00,meteohub,2013-04-02 21:30:00,
2013-04-02 17:35:00,43.2,15.3,29.94,West,260,4.0,8.0,32,0.00,,,0.00,meteohub,2013-04-02 21:35:00,
2013-04-02 17:40:00,43.0,14.4,29.94,SW,228,4.0,8.0,31,0.00,,,0.00,meteohub,2013-04-02 21:40:00,
2013-04-02 17:45:00,43.0,14.4,29.94,West,273,1.0,8.0,31,0.00,,,0.00,meteohub,2013-04-02 21:45:00,
2013-04-02 17:50:00,43.0,14.4,29.95,WSW,253,3.0,8.0,31,0.00,,,0.00,meteohub,2013-04-02 21:50:00,
2013-04-02 17:55:00,42.4,14.0,29.95,West,274,1.0,8.0,31,0.00,,,0.00,meteohub,2013-04-02 21:55:00,
2013-04-02 18:00:00,42.3,15.8,29.95,NE,53,1.0,8.0,34,0.00,,,0.00,meteohub,2013-04-02 22:00:00,
2013-04-02 18:05:00,42.3,13.1,29.95,SW,216,2.0,5.0,30,0.00,,,0.00,meteohub,2013-04-02 22:05:00,
2013-04-02 18:12:00,42.1,14.4,29.95,SW,225,3.0,5.0,32,0.00,,,0.00,meteohub,2013-04-02 22:12:00,
2013-04-02 18:17:00,41.9,13.5,29.96,NW,305,2.0,5.0,31,0.00,,,0.00,meteohub,2013-04-02 22:17:00,
2013-04-02 18:22:00,41.7,14.0,29.95,WNW,282,2.0,9.0,32,0.00,,,0.00,meteohub,2013-04-02 22:22:00,
2013-04-02 18:27:00,41.7,15.4,29.96,WSW,243,0.0,9.0,34,0.00,,,0.00,meteohub,2013-04-02 22:27:00,
2013-04-02 18:32:00,41.5,15.3,29.96,West,277,4.0,8.0,34,0.00,,,0.00,meteohub,2013-04-02 22:32:00,
2013-04-02 18:37:00,41.4,13.6,29.96,SW,229,0.0,5.0,32,0.00,,,0.00,meteohub,2013-04-02 22:37:00,
2013-04-02 18:42:00,41.4,13.6,29.96,West,276,2.0,6.0,32,0.00,,,0.00,meteohub,2013-04-02 22:42:00,
2013-04-02 18:47:00,41.2,14.9,29.97,WSW,240,3.0,6.0,34,0.00,,,0.00,meteohub,2013-04-02 22:47:00,
2013-04-02 18:52:00,40.8,13.3,29.97,WSW,246,4.0,6.0,32,0.00,,,0.00,meteohub,2013-04-02 22:52:00,
2013-04-02 18:58:00,40.6,13.8,29.97,West,263,1.0,6.0,33,0.00,,,0.00,meteohub,2013-04-02 22:58:00,
2013-04-02 19:03:00,40.6,14.5,29.97,ENE,75,1.0,7.0,34,0.00,,,0.00,meteohub,2013-04-02 23:03:00,
2013-04-02 19:08:00,40.5,13.6,29.97,WNW,302,2.0,7.0,33,0.00,,,0.00,meteohub,2013-04-02 23:08:00,
2013-04-02 19:13:00,40.5,13.6,29.97,WSW,255,1.0,4.0,33,0.00,,,0.00,meteohub,2013-04-02 23:13:00,
2013-04-02 19:18:00,40.3,13.5,29.97,SW,217,2.0,4.0,33,0.00,,,0.00,meteohub,2013-04-02 23:18:00,
2013-04-02 19:23:00,40.3,13.5,29.98,NNW,344,1.0,4.0,33,0.00,,,0.00,meteohub,2013-04-02 23:23:00,
2013-04-02 19:28:00,40.1,13.3,29.98,West,264,2.0,6.0,33,0.00,,,0.00,meteohub,2013-04-02 23:28:00,
2013-04-02 19:33:00,40.1,14.0,29.98,SW,236,0.0,6.0,34,0.00,,,0.00,meteohub,2013-04-02 23:33:00,
2013-04-02 19:38:00,39.9,13.8,29.98,SW,236,1.0,6.0,34,0.00,,,0.00,meteohub,2013-04-02 23:38:00,
2013-04-02 19:43:00,39.7,14.4,29.98,NW,309,0.0,5.0,35,0.00,,,0.00,meteohub,2013-04-02 23:43:00,
2013-04-02 19:48:00,39.7,14.9,29.99,WSW,248,0.0,4.0,36,0.00,,,0.00,meteohub,2013-04-02 23:48:00,
2013-04-02 19:53:00,39.6,14.7,29.99,West,274,0.0,5.0,36,0.00,,,0.00,meteohub,2013-04-02 23:53:00,
2013-04-02 19:58:00,39.4,14.7,29.99,WSW,248,0.0,5.0,36,0.00,,,0.00,meteohub,2013-04-02 23:58:00,
2013-04-02 20:03:00,39.4,15.3,29.99,SW,232,0.0,4.0,37,0.00,,,0.00,meteohub,2013-04-03 00:03:00,
2013-04-02 20:08:00,39.2,14.5,29.99,WSW,243,1.0,4.0,36,0.00,,,0.00,meteohub,2013-04-03 00:08:00,
2013-04-02 20:13:00,39.0,14.9,29.99,West,263,0.0,4.0,37,0.00,,,0.00,meteohub,2013-04-03 00:13:00,
2013-04-02 20:18:00,39.0,15.6,29.99,WSW,250,1.0,3.0,38,0.00,,,0.00,meteohub,2013-04-03 00:18:00,
2013-04-02 20:23:00,39.0,14.9,30.00,NW,311,2.0,3.0,37,0.00,,,0.00,meteohub,2013-04-03 00:23:00,
2013-04-02 20:28:00,39.2,15.1,30.00,SW,224,0.0,4.0,37,0.00,,,0.00,meteohub,2013-04-03 00:28:00,
2013-04-02 20:33:00,39.0,14.9,30.00,West,271,0.0,4.0,37,0.00,,,0.00,meteohub,2013-04-03 00:33:00,
2013-04-02 20:38:00,38.8,16.0,30.01,WSW,242,0.0,3.0,39,0.00,,,0.00,meteohub,2013-04-03 00:38:00,
2013-04-02 20:43:00,38.7,15.3,30.01,WSW,239,0.0,3.0,38,0.00,,,0.00,meteohub,2013-04-03 00:43:00,
2013-04-02 20:48:00,38.5,15.6,30.01,WSW,257,0.0,1.0,39,0.00,,,0.00,meteohub,2013-04-03 00:48:00,
2013-04-02 20:54:00,38.5,16.3,30.01,SW,228,0.0,1.0,40,0.00,,,0.00,meteohub,2013-04-03 00:54:00,
2013-04-02 20:59:00,38.5,16.3,30.01,WSW,238,0.0,4.0,40,0.00,,,0.00,meteohub,2013-04-03 00:59:00,
2013-04-02 21:04:00,38.5,16.9,30.01,WSW,257,2.0,4.0,41,0.00,,,0.00,meteohub,2013-04-03 01:04:00,
2013-04-02 21:09:00,38.5,16.3,30.02,SSW,197,0.0,4.0,40,0.00,,,0.00,meteohub,2013-04-03 01:09:00,
2013-04-02 21:14:00,38.3,16.7,30.02,West,266,0.0,4.0,41,0.00,,,0.00,meteohub,2013-04-03 01:14:00,
2013-04-02 21:19:00,37.9,16.3,30.03,WSW,239,0.0,4.0,41,0.00,,,0.00,meteohub,2013-04-03 01:19:00,
2013-04-02 21:24:00,37.9,15.8,30.03,NE,50,2.0,4.0,40,0.00,,,0.00,meteohub,2013-04-03 01:24:00,
2013-04-02 21:29:00,38.1,16.0,30.02,NW,321,1.0,6.0,40,0.00,,,0.00,meteohub,2013-04-03 01:29:00,
2013-04-02 21:34:00,38.3,16.2,30.03,SE,131,0.0,6.0,40,0.00,,,0.00,meteohub,2013-04-03 01:34:00,
2013-04-02 21:39:00,38.1,16.0,30.03,WSW,252,1.0,6.0,40,0.00,,,0.00,meteohub,2013-04-03 01:39:00,
2013-04-02 21:44:00,37.9,16.3,30.03,WSW,239,0.0,6.0,41,0.00,,,0.00,meteohub,2013-04-03 01:44:00,
2013-04-02 21:49:00,37.9,16.9,30.03,SW,228,0.0,6.0,42,0.00,,,0.00,meteohub,2013-04-03 01:49:00,
2013-04-02 21:54:00,37.8,16.7,30.03,West,267,0.0,3.0,42,0.00,,,0.00,meteohub,2013-04-03 01:54:00,
2013-04-02 21:59:00,37.6,16.5,30.03,SW,229,1.0,4.0,42,0.00,,,0.00,meteohub,2013-04-03 01:59:00,
2013-04-02 22:05:00,37.6,16.5,30.03,West,277,0.0,5.0,42,0.00,,,0.00,meteohub,2013-04-03 02:05:00,
2013-04-02 22:10:00,37.6,16.5,30.03,West,271,1.0,5.0,42,0.00,,,0.00,meteohub,2013-04-03 02:10:00,
2013-04-02 22:15:00,37.6,16.0,30.04,SSE,153,0.0,5.0,41,0.00,,,0.00,meteohub,2013-04-03 02:15:00,
2013-04-02 22:20:00,37.4,15.8,30.03,West,260,1.0,3.0,41,0.00,,,0.00,meteohub,2013-04-03 02:20:00,
2013-04-02 22:25:00,37.4,15.8,30.04,SW,228,1.0,3.0,41,0.00,,,0.00,meteohub,2013-04-03 02:25:00,
2013-04-02 22:30:00,37.2,15.6,30.04,West,264,1.0,5.0,41,0.00,,,0.00,meteohub,2013-04-03 02:30:00,
2013-04-02 22:35:00,37.2,15.6,30.04,WSW,257,0.0,3.0,41,0.00,,,0.00,meteohub,2013-04-03 02:35:00,
2013-04-02 22:40:00,37.0,16.2,30.04,West,264,1.0,4.0,42,0.00,,,0.00,meteohub,2013-04-03 02:40:00,
2013-04-02 22:45:00,37.0,16.2,30.04,WSW,250,1.0,4.0,42,0.00,,,0.00,meteohub,2013-04-03 02:45:00,
2013-04-02 22:50:00,37.0,16.2,30.04,WSW,245,1.0,3.0,42,0.00,,,0.00,meteohub,2013-04-03 02:50:00,
2013-04-02 22:56:00,36.9,15.4,30.05,West,262,1.0,4.0,41,0.00,,,0.00,meteohub,2013-04-03 02:56:00,
2013-04-02 23:01:00,36.9,14.7,30.05,NW,316,1.0,4.0,40,0.00,,,0.00,meteohub,2013-04-03 03:01:00,
2013-04-02 23:06:00,36.9,16.0,30.05,WSW,247,2.0,4.0,42,0.00,,,0.00,meteohub,2013-04-03 03:06:00,
2013-04-02 23:12:00,36.7,15.3,30.05,WSW,256,1.0,2.0,41,0.00,,,0.00,meteohub,2013-04-03 03:12:00,
2013-04-02 23:17:00,36.7,15.8,30.05,WSW,250,0.0,4.0,42,0.00,,,0.00,meteohub,2013-04-03 03:17:00,
2013-04-02 23:22:00,36.5,15.6,30.05,West,271,0.0,4.0,42,0.00,,,0.00,meteohub,2013-04-03 03:22:00,
2013-04-02 23:27:00,36.3,15.4,30.06,WSW,257,0.0,4.0,42,0.00,,,0.00,meteohub,2013-04-03 03:27:00,
2013-04-02 23:32:00,36.1,15.8,30.06,WSW,257,0.0,2.0,43,0.00,,,0.00,meteohub,2013-04-03 03:32:00,
2013-04-02 23:37:00,35.8,16.5,30.06,WSW,257,0.0,2.0,45,0.00,,,0.00,meteohub,2013-04-03 03:37:00,
2013-04-02 23:42:00,35.4,16.2,30.06,SW,235,0.0,2.0,45,0.00,,,0.00,meteohub,2013-04-03 03:42:00,
2013-04-02 23:47:00,35.1,15.3,30.06,SW,235,0.0,2.0,44,0.00,,,0.00,meteohub,2013-04-03 03:47:00,
2013-04-02 23:52:00,35.1,15.8,30.06,SW,235,0.0,2.0,45,0.00,,,0.00,meteohub,2013-04-03 03:52:00,
2013-04-02 23:57:00,34.7,15.4,30.06,West,280,0.0,0.0,45,0.00,,,0.00,meteohub,2013-04-03 03:57:00,